{"data":{"norad_id":67092,"intl_designator":"2025-298T","name":"STARLINK-35792","alt_names":[],"object_type":"PAYLOAD","status":"ACTIVE","operator":null,"country":"US","launch_date":"2025-12-14","launch_site_code":"AFWTR","launch_vehicle":null,"mission":null,"orbit_class":"UNKNOWN","rcs_meters":null,"size_class":null,"mass_kg":null,"dimensions":null,"purposes":["comms"],"wikipedia_slug":null,"has_3d_model":false,"image_url":null,"decayed_at":null,"tle_current":{"epoch":"2026-09-20T16:30:04.288896Z","epoch_age_seconds":62866,"freshness":"FRESH","line1":"1 67092U 25298T   26263.68754964  .00002542  00000+0  22072-3 0  9996","line2":"2 67092  69.9989 242.8960 0003732 268.3802  91.6930 14.98335259 42420","mean_motion":14.98335259,"eccentricity":0.0003732,"inclination_deg":69.9989,"raan_deg":242.896,"arg_perigee_deg":268.3802,"mean_anomaly_deg":91.693,"bstar":0.00022072,"rev_number":4242,"period_min":96.106661800181,"perigee_km":569.44582205074,"apogee_km":574.63343388586,"semimajor_km":6950.1766279683,"source":"CELESTRAK","updated_at":"2026-09-21T09:00:36.100982Z"}}}